Content
SEND FEEDBACK

Daily
Averages
Monthly
Summary
Mexico

COZUMEL, QUINTANA ROO


Home > North America > Mexico > Quintana Roo
Elevation: 15 feet     Latitude: 20 31N     Longitude: 086 56W

WEATHER
 
SELECT A DAY
Number of Records: 128,650;   Date Range: 1/1/95 - 12/21/14
 
SHARE

PRINT THIS DATA

[ ← Previous Day ]
WEATHER ALMANAC - AUGUST 23, 2014
[ Next Day → ]
[ °C ]   °F
Weather ElementAverageHighLow
Temperature79.9 °F87.8 °F (12:54 pm)71.6 °F (3:48 am)
Dewpoint75.4 °F77 °F (7:43 am)71.6 °F (3:48 am)
Humidity86.8 %100 % (12:44 am)66 % (2:50 pm)
Barometer29.93 in30.03 in (10:40 am)29.87 in (4:49 pm)
Wind Speed6.3 mph17.3 mph (12:41 pm)
Weather ElementAverage
Visibility7.5 mi
Wind DirectionNNE (35.4 °)

Weather ElementTotal
Precipitation---
Cooling Degree Days14.7 (Base 65)
Growing Degree Days29.7 (Base 50)
Averaged from 24 records on August 23, 2014
WEATHER CONDITIONS BREAKOUT
WIND DIRECTION BREAKOUT
WEATHER BY HOUR - AUGUST 23, 2014
[ °C ]   °F
Local TimeTemperatureDewpointHumidityBarometerVisibilityWind DirectionWind SpeedGust SpeedPrecipitationEventsConditions
12:53 AM77.0 °F77.0 °F100 %29.96 in7.0 miCalmScattered Clouds
1:48 AM75.2 °F75.2 °F100 %29.95 in7.0 miCalmScattered Clouds
3:16 AM75.2 °F75.2 °F100 %29.93 in7.0 miENE (60°)3.5 mphPartly Cloudy
3:42 AM75.2 °F75.2 °F100 %29.95 in7.0 miCalmPartly Cloudy
4:44 AM73.4 °F73.4 °F100 %29.92 in7.0 miCalmPartly Cloudy
5:45 AM71.6 °F71.6 °F100 %29.92 in7.0 miCalmPartly Cloudy
6:42 AM71.6 °F71.6 °F100 %29.91 in8.0 miCalmScattered Clouds
7:43 AM77.0 °F77.0 °F100 %29.95 in8.0 miCalmScattered Clouds
8:44 AM82.4 °F77.0 °F84 %29.96 in8.0 miNE (50°)6.9 mphScattered Clouds
9:40 AM82.4 °F75.2 °F79 %29.99 in8.0 miNE (50°)6.9 mphScattered Clouds
10:40 AM84.2 °F77.0 °F79 %29.97 in8.0 miNE (40°)13.8 mphScattered Clouds
11:40 AM86.0 °F77.0 °F74 %29.96 in8.0 miNorth (10°)13.8 mphScattered Clouds
12:46 PM87.8 °F75.2 °F66 %29.94 in8.0 miNE (40°)10.4 mphScattered Clouds
1:51 PM87.8 °F75.2 °F66 %29.92 in8.0 miENE (60°)11.5 mphScattered Clouds
2:48 PM87.8 °F77.0 °F70 %29.90 in8.0 miENE (70°)13.8 mphScattered Clouds
3:53 PM86.0 °F75.2 °F70 %29.90 in8.0 miENE (70°)13.8 mphScattered Clouds
4:49 PM84.2 °F77.0 °F79 %29.87 in8.0 miEast (80°)17.3 mphScattered Clouds
5:51 PM82.4 °F77.0 °F84 %29.87 in8.0 miENE (60°)13.8 mphScattered Clouds
6:43 PM80.6 °F75.2 °F84 %29.87 in8.0 miENE (70°)6.9 mphScattered Clouds
7:46 PM78.8 °F73.4 °F83 %29.89 in7.0 miENE (70°)5.8 mphScattered Clouds
8:45 PM78.8 °F75.2 °F89 %29.89 in7.0 miENE (60°)5.8 mphScattered Clouds
9:45 PM78.8 °F75.2 °F89 %29.95 in7.0 miENE (60°)8.1 mphScattered Clouds
10:48 PM77.0 °F75.2 °F94 %29.93 in7.0 miCalmScattered Clouds
11:52 PM77.0 °F75.2 °F94 %30.03 in7.0 miCalmScattered Clouds
Hourly data recorded from MMCZ, located miles away from Cozumel, Quintana Roo







STORIES FROM OUR PARTNERS